AirNav   Pilot Hours Calculator
 
 1030 users online  

C40 Miller Airport
Bluffton, Indiana, USA

GOING TO BLUFFTON?


FAA INFORMATION EFFECTIVE 07 NOVEMBER 2019

Location

FAA Identifier: C40
Lat/Long: 40-43-00.1680N 085-14-59.8950W
40-43.002800N 085-14.998250W
40.7167133,-85.2499708
(estimated)
Elevation: 845 ft. / 258 m (estimated)
Variation: 03W (1985)
From city: 3 miles SW of BLUFFTON, IN
Time zone: UTC -5 (UTC -4 during Daylight Saving Time)
Zip code: 46766

Airport Operations

Airport use: Open to the public
Activation date: 09/1947
Control tower: no
ARTCC: CHICAGO CENTER
FSS: TERRE HAUTE FLIGHT SERVICE STATION
NOTAMs facility: HUF (NOTAM-D service available)
Attendance: IREG
FOR ASSISTANCE CALL 260-760-0828
Wind indicator: yes
Segmented circle: no

Airport Communications

CTAF: 122.9
WX AWOS-3PT at HHG (12 nm NW): 126.575 (260-454-1927)
WX ASOS at FWA (16 nm N): PHONE 260-479-6621
WX AWOS-3 at PLD (20 nm SE): 124.675 (260-726-7882)

Nearby radio navigation aids

VOR radial/distance  VOR name  Freq  Var
FWAr196/16.0FORT WAYNE VORTAC117.8006W
MZZr059/23.7MARION VOR/DME108.6003W
MIEr016/29.5MUNCIE VOR/DME114.4003W
OLKr164/(33.7)WEBSTER LAKE VOR110.4003W
OKKr078/38.5KOKOMO VORTAC113.5005W

Airport Services

Fuel available: 100LL
Parking: hangars and tiedowns
Airframe service: MINOR
Powerplant service: MINOR
Bottled oxygen: NONE
Bulk oxygen: NONE

Runway Information

Runway 9/27

Dimensions: 2600 x 100 ft. / 792 x 30 m
Surface: turf, in excellent condition
RUNWAY 9  RUNWAY 27
Latitude: 40-42.861833N40-42.861833N
Longitude: 085-15.042333W085-14.476333W
Elevation: 843.0 ft.845.0 ft.
Traffic pattern: leftleft
Displaced threshold: 200 ft.
RY 09/27 DSPLCD THLDS MKD WITH WHT CONES.
300 ft.
Markings: nonenone
Runway end identifier lights: nono
Obstructions: 10 ft. crops, 200 ft. from runway, 20:1 slope to clear
RY 09 APCH RATIO 20:1 AT DSPLCD THR.
15 ft. road, 300 ft. from runway, 20:1 slope to clear
APCH RATIO 20:1 AT DSPLCD THR.

Airport Ownership and Management from official FAA records

Ownership: Privately-owned
Owner: JOHN W. MILLER
1447 W 200 S, AIRPORT ROAD
BLUFFTON, IN 46714
Phone 260-694-6710
Manager: JOHN W. MILLER
1447 W 200 S, AIRPORT ROAD
BLUFFTON, IN 46714
Phone 260-694-6214

Airport Operational Statistics

Aircraft based on the field: 9
Single engine airplanes: 5
Multi engine airplanes: 1
Ultralights: 3
    
Aircraft operations: avg 50/week *
86% local general aviation
14% transient general aviation
* for 12-month period ending 31 December 2018

Additional Remarks

FOR CD CTC CHICAGO ARTCC AT 630-906-8921.

Instrument Procedures

There are no published instrument procedures at C40.

Some nearby airports with instrument procedures:

KHHG - Huntington Municipal Airport (12 nm NW)
KFWA - Fort Wayne International Airport (16 nm N)
KPLD - Portland Municipal Airport (20 nm SE)
KMZZ - Marion Municipal Airport (24 nm SW)
KIWH - Wabash Municipal Airport (25 nm W)
 
Loc | Ops | Rwys | IFR | FBO | Links
Com | Nav | Svcs | Stats | Notes
Area around C40 (Miller Airport)
 
Road maps at: MapQuest Bing Google
 
Aerial photo
WARNING: Photo may not be current or correct
Aerial photo of C40 (Miller Airport)
Do you have a better or more recent aerial photo of Miller Airport that you would like to share? If so, please send us your photo.

 
Sectional chart

 
Airport distance calculator
Flying to Miller Airport? Find the distance to fly.

From to C40

Sunrise and sunset
Times for 17-Nov-2019
 Local
(UTC-5)
 Zulu
(UTC)
Morning civil twilight07:0212:02
Sunrise07:3112:31
Sunset17:2122:21
Evening civil twilight17:5022:50

Current date and time
Zulu (UTC)  17-Nov-2019 22:39:51
Local (UTC-5)  17-Nov-2019 17:39:51
 
METAR
KHHG 
12nm NW 
172215Z AUTO 07003KT 10SM CLR 04/M02 A2993 RMK AO2 T00371021
KFWA 
15nm N 
172154Z 00000KT 10SM FEW100 BKN130 OVC190 04/M01 A2995 RMK AO2 SLP152 T00441011
KPLD 
20nm SE 
172215Z AUTO 00000KT 10SM CLR 06/M02 A2993 RMK AO2
KMZZ 
24nm SW 
172215Z AUTO 00000KT 10SM SCT120 04/00 A2994 RMK AO2 T00430003
TAF
KFWA 
15nm N 
172206Z 1722/1818 15006KT P6SM SCT100 BKN250 TEMPO 1723/1801 5SM -SHRA FM180100 VRB03KT P6SM OVC100 FM181500 27005KT P6SM BKN040
NOTAMs
Click for the latest NOTAMs
NOTAMs are issued by the DoD/FAA and will open in a separate window not controlled by AirNav.

 

 
 

FBO, Fuel Providers, and Aircraft Ground Support

  
 Business Name 
 
 Contact 
 
 Services / Description 
 
Fuel Prices
 
Comments
  
Miller Flying Service 260-694-6214
[email]
Airport management, Aviation fuel, Public telephone, Restrooms

More info about Miller Flying Service
independent
100LL
PS $4.50 
 Updated 21-May-2018
 
   write
PS=Pump service
Update Fuel Prices
 

Would you like to see your business listed on this page?

 If your business provides an interesting product or service to pilots, flight crews, aircraft, or users of the Miller Airport, you should consider listing it here.  To start the listing process, click on the button below
 
Add a business
 

Other Pages about Miller Airport

Update a link
 
Copyright © AirNav, LLC. All rights reserved. Privacy Policy  Contact